User: anonymous   Login
Location: Unspecified
(0.0000°N, 0.0000°E)
Time: 04:18:38
(UTC+00:00)
Language:

N. Korean satellite - Orbit

View from above orbital plane
View from above orbital plane
View from above satellite
View from above satellite

Ground track
Ground track

The orbit data is extracted from the following two-line orbital elements,

1 39026U 12072A   17020.12426130  .00001650  00000-0  67884-4 0  9990
2 39026  97.2333  43.0188 0040732 343.4914  16.4995 15.24803113227426
Epoch (UTC): 20 January 2017 02:58:56
Eccentricity: 0.0040732
inclination: 97.2333°
perigee height: 463 km
apogee height: 519 km
right ascension of ascending node: 43.0188°
argument of perigee: 343.4914°
revolutions per day: 15.24803113
mean anomaly at epoch: 16.4995°
orbit number at epoch: 22742

The dashed part of the orbit path shows where the satellite is in the earth's shadow,  

DLR